Regional Weather Roundup
Issued by NWS

Home | Current Version | Previous Version | Text Only | Print | Product List | Glossary Off
Versions: 1 2 3 4 5 6 7 8 9 10 11 12 13 14 15 16 17 18 19 20 21 22 23 24 25 26 27 28 29 30 31 32 33 34 35 36 37 38 39 40 41 42 43 44 45 46 47 48 49 50

979
ASUS43 KTOP 080759
RWRKS

WEATHER ROUNDUP FOR KANSAS
NATIONAL WEATHER SERVICE GOODLAND KS
200 AM CST MON FEB 08 2016

NOTE:  "FAIR" INDICATES FEW OR NO CLOUDS BELOW 12,000 FEET WITH NO
SIGNIFICANT WEATHER AND/OR OBSTRUCTIONS TO VISIBILITY.

KSZ001>006-013>018-027>032-041>047-080900-
NORTHWEST KANSAS

CITY           SKY/WX    TMP DP  RH WIND       PRES   REMARKS
GOODLAND       CLEAR     26  11  52 NW24      30.31F WCI  11
HAYS           CLEAR     30  12  47 NW20      30.25F WCI  18
HILL CITY      CLEAR     28  16  60 W16       30.26F WCI  16
RUSSELL        CLEAR     32  18  56 NW17      30.22F WCI  21
$$

KSZ061>065-074>080-084>089-080900-
SOUTHWEST KANSAS

CITY           SKY/WX    TMP DP  RH WIND       PRES   REMARKS
DODGE CITY     CLEAR     31  13  47 NW23G30   30.31S WCI  18
ELKHART          N/A     27  11  51 NW14        N/A  WCI  16
GARDEN CITY    PTCLDY    31  15  52 NW15      30.33F WCI  20
GREAT BEND     CLEAR     30  14  51 NW16      30.26F WCI  19
LIBERAL        CLEAR     25  12  58 W13       30.37F WCI  13
$$

KSZ066>073-081>083-090>101-080900-
SOUTHEAST KANSAS

CITY           SKY/WX    TMP DP  RH WIND       PRES   REMARKS
CHANUTE        CLEAR     37  20  50 NW16G25   30.09F WCI  28
COFFEYVILLE    CLEAR     39  20  46 NW18      30.13F WCI  30
HUTCHINSON     PTCLDY    35  17  47 NW18G26   30.22F WCI  24
MEDICINE LODGE   N/A     30  18  60 NW9       30.27F
NEWTON         CLEAR     34  18  51 NW18G25   30.18F WCI  23
PARSONS        CLEAR     37  20  50 NW14G25   30.11F WCI  28
WICHITA INTL   CLEAR     38  17  42 NW21G30   30.20S WCI  28
WICHITA JABRA  CLEAR     36  18  48 NW20G30   30.18F WCI  25
WINFIELD       CLEAR     33  20  58 NW16      30.21F WCI  23
$$

KSZ007>012-019>026-033>040-048>060-102>105-080900-
NORTHEAST KANSAS

CITY           SKY/WX    TMP DP  RH WIND       PRES   REMARKS
CONCORDIA      CLEAR     31  19  61 NW15      30.14F WCI  20
EMPORIA        CLEAR     35  17  47 NW25G36   30.10S WCI  23
LAWRENCE       CLOUDY    36  22  56 NW20G29   30.03F WCI  25
MANHATTAN      CLEAR     35  17  47 NW7       30.13F
OLATHE IND     CLOUDY    35  22  58 NW20G28   30.01F WCI  24
OLATHE EXE     CLOUDY    35  19  52 N22G43    30.00S WCI  23
SALINA         CLEAR     34  19  54 NW17      30.19F WCI  23
TOPEKA BILLARD CLOUDY    38  17  42 NW22G38   30.06F WCI  27
TOPEKA FORBES  CLOUDY    38  18  44 NW25G37   30.05F WCI  27
$$




USA.gov is the U.S. government's official web portal to all federal, state and local government web resources and services.